Regional Weather Roundup
Issued by NWS

Home | Current Version | Previous Version | Graphics & Text | Print | Product List | Glossary On
Versions: 1 2 3 4 5 6 7 8 9 10 11 12 13 14 15 16 17 18 19 20 21 22 23 24 25 26 27 28 29 30 31 32 33 34 35 36 37 38 39 40 41 42 43 44 45 46 47 48 49
000
ASUS45 KBOU 210407
RWRCO

WEATHER ROUNDUP FOR COLORADO
NATIONAL WEATHER SERVICE DENVER/BOULDER CO
900 PM MST SAT DEC 20 2014

NOTE: "FAIR" INDICATES FEW OR NO CLOUDS BELOW 12000 FEET WITH NO
SIGNIFICANT WEATHER AND/OR OBSTRUCTIONS TO VISIBILITY.

COZ001>005-013-030-031-210500-
...NORTHWEST COLORADO...

CITY           SKY/WX    TMP DP  RH WIND       PRES   REMARKS
CRAIG          CLOUDY    28  25  88 CALM      30.04F
HAYDEN         CLOUDY    25  23  93 S6        30.03F WCI  18
MEEKER         CLOUDY    30  27  88 NE7       30.06F WCI  23
MOUNT WERNER   NOT AVBL
STEAMBOAT SPGS CLOUDY    25  24  95 CALM      30.02F
WALDEN         CLOUDY    28  21  74 S12       29.96S WCI  18
$$

COZ006>008-011-210500-
...WEST CENTRAL VALLEYS...

CITY           SKY/WX    TMP DP  RH WIND       PRES   REMARKS
GRAND JUNCTION CLOUDY    32  31  96 CALM      30.11F
MONTROSE       CLOUDY    33  26  75 CALM      30.12S
EAGLE          FLURRIES  27  23  86 CALM      30.09S
RIFLE          LGT SNOW  30  28  92 CALM      30.10F FOG
DELTA          CLOUDY    36  28  73 N5        30.11F
NUCLA          CLOUDY    34  28  80 CALM      30.14S
$$

COZ017>023-064>068-210500-
...SOUTHWEST COLORADO...

CITY           SKY/WX    TMP DP  RH WIND       PRES   REMARKS
DURANGO        CLOUDY    29  25  85 E3        30.10S
CORTEZ         CLOUDY    32  29  88 CALM      30.13R
PAGOSA SPRINGS CLOUDY    30  27  89 CALM      30.10R
TELLURIDE      CLOUDY    27  23  83 CALM      30.11R
WOLF CREEK PAS SNOW      16  16 100 MISG      30.08R VSB<1/4
$$

COZ009-010-012-014-032>034-037-058>063-210500-
...CENTRAL COLORADO...

CITY           SKY/WX    TMP DP  RH WIND       PRES   REMARKS
ASPEN          LGT SNOW  24  23  96 NW3       30.05S FOG
BUENA VISTA    CLOUDY    30  19  62 NW7       29.99F WCI  23
COPPER MTN     LGT SNOW  19  14  79 W18       30.00S WCI   4
BERTHOUD PASS  CLOUDY    10   5  79 MISG      29.94F
COTTONWOOD PAS CLOUDY    30  19  64 NW5G16    30.00S WCI  25
GUNNISON       CLOUDY    23  18  80 CALM      30.10F
KREMMLING      FLURRIES  23  19  86 CALM      30.04S
LEADVILLE      LGT SNOW  22  16  78 N9        29.99S WCI  12
MONARCH PASS   CLOUDY    16  14  93 MISG      30.09F
SALIDA         MOCLDY    35  21  56 SW17      30.06S WCI  25
SUNLIGHT       LGT SNOW  23  21  93 CALM      30.05S
WILKERSON PASS PTCLDY    19  10  68 W6        30.01F WCI  11
$$

COZ069>075-210500-
...SAN LUIS VALLEY/SANGRE DE CRISTO MOUNTAINS...

CITY           SKY/WX    TMP DP  RH WIND       PRES   REMARKS
ALAMOSA        CLOUDY    20  14  77 E5        30.02F WCI  13
LA VETA PASS   MOCLDY    21  14  73 S10G20    29.99S WCI  10
SAGUACHE       CLOUDY    32  21  64 W5        30.05S WCI  27
$$

COZ035-036-038>040-210500-
...NORTHERN COLORADO FRONT RANGE...

CITY           SKY/WX    TMP DP  RH WIND       PRES   REMARKS
DENVER INTL AP CLOUDY    37  24  59 S10       29.93S
DMNS CITY PARK   N/A     38  22  52 SW3       29.93S
AURORA         MOCLDY    36  22  57 SE7       29.93F
FRONT RANGE AP NOT AVBL
ERIE MUNI ARPT   N/A     32  23  70 CALM      29.92F
BOULDER MUN AP CLOUDY    37  21  52 CALM      29.93S
CENTENNIAL     CLOUDY    37  24  59 NE6       29.93F
BROOMFIELD     CLOUDY    39  19  45 SW7       29.94S
FORT COLLINS   CLOUDY    34  18  51 NE5       29.95S WCI  30
LONGMONT       CLOUDY    34  23  62 CALM      29.95F
$$

COZ041-046-047-076>085-087-088-210500-
...PIKES PEAK/PALMER DIVIDE AND SOUTHERN FOOTHILLS...

CITY           SKY/WX    TMP DP  RH WIND       PRES   REMARKS
COLO. SPRINGS  CLOUDY    37  21  52 NE3       29.95F
A. F. ACADEMY  CLOUDY    35  19  52 NE7       29.94F WCI  30
ELLICOTT       NOT AVBL
FALCON         CLOUDY    38  20  49 W13       29.97S
FORT CARSON    CLOUDY    35  20  53 NW6       29.94F WCI  30
LIMON          CLOUDY    25  21  85 CALM      29.95R
MONUMENT HILL  CLOUDY    34  23  64 W8        29.95S WCI  27
TRINIDAD       CLOUDY    32  18  56 W7        29.93S WCI  26
$$

COZ042>045-048>051-090-091-210500-
...NORTHEAST COLORADO...

CITY           SKY/WX    TMP DP  RH WIND       PRES   REMARKS
GREELEY ARPT   CLOUDY    30  16  55 SW6       29.92S WCI  24
AKRON          CLOUDY    35  22  58 E6        29.93S WCI  30
BURLINGTON     MOCLDY    34  27  75 SW8       29.93S WCI  27
WRAY           PTCLDY    30  26  86 NW6       29.95S WCI  24
STERLING       CLOUDY    27  23  86 S5        29.93F WCI  21
HOLYOKE        PTCLDY    34  30  86 W7        29.94S WCI  28
FORT MORGAN    CLOUDY    33  19  56 NW3       29.94S
$$

COZ086-089-092>099-210500-
...SOUTHEAST COLORADO...

CITY           SKY/WX    TMP DP  RH WIND       PRES   REMARKS
PUEBLO         CLOUDY    35  23  61 N6        29.92F WCI  30
LA JUNTA       CLOUDY    32  26  78 E6        29.91F WCI  26
LAMAR          MOCLDY    28  24  85 NE5       29.92F WCI  23
SPRINGFIELD      N/A     28  25  88 S8        29.93F WCI  20
$$


USA.gov is the U.S. government's official web portal to all federal, state and local government web resources and services.